SCP
4 3 3 3 2 2 3 3 2 2 2 2 3 4 4 3 2 2 1 0 0 0 0 0 0 0 0 0 0 0 0 0 0 0 0 0 0 0 0 0 0 0 0
4 4 3 3 2 2 2 2 2 2 2 3 4 4 4 3 2 1 1 1 0 0 0 0 0 0 0 0 0 0 0 0 0 0 0 0 0 0 0 0 0 0 0
6 4 3 2 2 2 2 2 2 2 2 3 3 3 2 2 1 1 1 1 1 0 0 0 0 0 0 0 0 0 0 0 0 0 0 0 0 0 0 0 0 0 0
4 4 2 2 2 2 2 2 2 2 2 2 2 2 2 2 1 1 1 1 1 1 1 0 0 0 0 0 0 0 0 0 0 0 0 0 0 0 0 0 0 0 0
3 2 2 2 2 1 1 2 2 2 2 2 2 2 2 2 1 1 1 2 1 1 1 1 0 0 0 0 0 0 0 0 0 0 0 0 0 0 0 0 0 0 0
3 2 2 2 2 2 2 2 2 2 1 2 2 2 2 2 1 1 1 2 2 2 1 1 1 0 0 0 0 0 0 0 0 0 0 0 0 0 0 0 0 0 0
3 3 2 2 2 2 2 2 2 2 2 2 2 2 2 2 1 1 1 1 2 2 1 1 1 1 0 0 0 0 0 0 0 0 0 0 0 0 0 0 0 0 0
4 4 4 3 2 2 2 2 2 2 2 2 2 2 2 2 1 0 0 1 1 2 1 1 1 1 0 0 0 0 0 0 0 0 0 0 0 0 0 0 0 0 0
4 4 4 3 3 2 2 2 2 2 2 2 2 2 2 2 1 0 0 0 1 1 1 1 1 1 0 0 0 0 0 0 0 0 0 0 0 0 0 0 0 0 0
5 5 4 4 3 3 3 3 3 3 2 3 3 3 2 2 1 0 0 0 1 1 1 1 1 0 0 0 0 0 0 0 0 1 0 0 0 0 0 0 0 0 0
5 4 4 4 3 3 3 3 3 3 3 3 3 3 2 1 0 0 0 0 0 0 1 1 0 0 0 0 0 0 0 0 0 1 1 0 0 0 0 0 0 0 0
4 4 3 3 3 3 2 3 4 4 4 4 4 3 2 1 0 0 0 0 0 0 0 0 0 0 0 0 0 0 0 0 0 0 0 0 0 0 0 0 0 0 0
4 4 3 3 2 2 2 2 3 4 5 4 4 3 2 1 0 0 0 0 0 0 0 0 0 0 0 0 0 0 0 0 0 0 0 0 0 0 0 0 0 0 0
4 3 3 2 2 2 2 2 3 4 5 5 4 3 2 1 1 0 0 0 0 0 0 0 0 0 0 0 0 0 0 0 0 0 0 0 0 0 0 0 0 0 0
3 3 3 3 2 2 1 1 2 3 4 4 3 3 2 1 1 1 0 0 0 0 0 0 0 0 0 0 0 0 0 0 0 0 0 0 0 0 0 0 0 0 0
4 4 4 3 3 2 2 1 1 1 1 2 2 2 1 1 1 0 0 0 0 0 0 0 0 0 0 0 0 0 0 0 0 0 0 0 0 0 0 0 0 0 0
4 4 4 3 3 2 2 2 1 0 0 0 0 1 1 1 0 0 0 0 0 0 0 0 0 0 0 0 0 0 0 0 0 0 0 0 0 0 0 0 0 0 0
3 3 3 3 2 2 2 2 1 0 0 0 0 0 0 0 0 0 0 0 0 0 0 0 0 0 0 0 0 0 0 0 0 0 0 0 0 0 0 0 0 0 0
3 2 2 2 2 1 1 1 1 0 0 0 0 0 0 0 0 0 0 0 0 0 0 0 0 0 0 0 0 0 0 0 0 0 0 0 0 0 0 0 0 0 0
2 2 1 1 1 1 1 1 0 0 0 0 0 0 0 0 0 0 0 0 0 0 0 0 0 0 0 0 0 0 0 0 0 0 0 0 0 0 0 1 1 0 0
1 1 1 1 1 0 0 0 0 0 0 0 0 0 0 0 0 0 0 0 0 0 0 0 0 0 0 0 0 0 0 0 0 0 0 0 0 1 1 1 1 1 0
1 1 1 0 0 0 0 0 0 0 0 0 0 0 0 0 0 0 0 0 0 0 0 0 0 0 0 0 0 0 0 0 0 0 0 0 1 1 1 1 1 1 0
1 1 1 0 0 0 0 0 0 0 0 0 0 0 0 0 0 0 0 0 0 0 0 0 0 0 0 0 0 0 0 0 0 0 0 0 1 1 1 1 1 1 0
1 1 0 0 0 0 0 0 0 0 0 0 0 0 0 0 0 0 0 0 0 0 0 0 0 0 0 0 0 0 0 0 0 0 0 0 1 1 1 1 1 1 1
1 1 0 0 0 0 0 0 0 0 0 0 0 1 0 0 0 0 0 0 0 0 0 0 0 0 0 0 0 0 0 0 0 0 0 0 1 1 1 1 1 1 1
1 0 0 0 0 0 0 0 0 0 0 1 1 1 0 0 0 0 0 0 0 0 0 0 0 0 0 0 0 0 0 0 0 0 0 0 1 1 1 1 1 1 1
Wind_Speed
5 5 4 4 4 4 4 5 5 4 5 5 5 5 5 5 4 3 3 3 3 2 2 3 2 2 2 1 2 2 2 3 3 3 2 1 2 2 2 2 3 3 4
4 4 4 4 3 4 4 4 4 4 4 5 5 5 5 5 4 5 4 4 4 3 3 3 3 2 2 2 2 2 2 2 3 2 2 1 2 2 2 2 2 3 3
3 3 3 3 3 4 4 4 4 4 4 4 5 5 5 4 5 5 5 4 4 4 4 4 4 4 3 2 2 2 2 1 2 2 2 1 1 1 0 1 2 2 3
3 3 3 4 5 5 4 4 4 4 4 4 4 4 4 4 4 4 4 4 4 4 4 4 4 5 5 4 3 3 2 2 1 1 1 1 1 1 1 1 2 2 2
2 3 4 4 4 4 4 4 4 4 5 4 4 4 3 4 4 4 4 5 4 3 3 4 4 5 6 5 4 4 3 2 2 2 2 1 1 1 2 2 2 2 2
3 4 4 3 3 4 4 4 4 4 4 4 4 4 4 4 5 7 5 4 4 4 4 4 4 4 6 7 7 6 6 5 4 3 2 3 4 3 2 2 2 1 2
2 3 3 3 3 4 4 4 4 4 4 4 4 4 5 5 6 7 7 4 4 5 5 4 3 4 5 4 5 6 6 7 7 5 4 5 4 4 3 2 2 3 4
1 2 2 2 3 3 3 4 4 4 4 4 4 4 4 4 6 6 6 4 3 4 5 5 5 4 4 4 4 3 3 4 6 5 6 6 5 5 5 4 4 3 3
1 2 2 2 3 3 3 3 4 4 4 4 4 4 4 4 6 7 6 3 2 4 4 4 4 4 5 5 4 4 3 4 5 6 7 7 7 6 5 2 2 1 2
2 2 2 2 3 4 4 3 3 3 4 4 4 4 5 5 6 7 7 3 3 3 3 3 5 5 5 5 5 5 5 5 3 2 3 4 5 5 6 5 5 3 2
2 2 2 2 3 3 3 3 3 3 3 4 4 4 5 6 6 7 7 4 3 3 3 3 3 5 6 7 6 5 7 5 3 3 3 3 3 3 4 4 5 5 4
1 1 2 2 3 2 3 3 3 4 4 4 3 3 3 4 5 6 8 7 5 4 3 3 3 6 6 6 5 6 6 4 2 2 2 3 3 4 4 4 5 6 5
1 1 2 2 2 2 3 3 3 3 3 3 3 3 3 3 3 6 7 7 7 4 3 4 5 6 5 4 6 6 4 3 3 3 4 4 4 4 3 2 3 3 4
1 2 2 1 2 2 1 2 3 3 3 3 3 4 3 3 3 3 3 4 4 4 3 3 3 3 3 3 3 3 3 3 4 4 4 4 3 2 3 2 2 2 2
1 1 2 1 1 1 1 2 3 4 5 5 4 4 5 5 6 7 5 4 4 4 2 1 1 1 1 2 2 2 2 2 3 3 3 3 3 2 3 2 2 2 3
1 1 1 1 1 1 1 2 3 3 5 7 7 6 5 6 6 7 8 7 7 6 4 2 3 3 4 3 3 3 2 3 3 3 2 2 2 2 2 2 2 2 3
1 2 1 1 1 1 1 1 2 4 4 4 6 6 6 7 7 8 9 7 7 7 3 3 4 4 4 4 4 3 3 3 3 2 3 3 3 2 2 2 2 2 3
2 2 2 2 2 2 2 2 2 2 2 3 3 5 6 7 7 8 8 5 3 4 4 4 4 4 4 4 4 4 3 3 2 3 3 3 3 2 2 2 2 3 3
2 2 2 2 2 2 2 2 2 3 3 2 2 2 3 4 4 5 6 4 5 5 5 4 4 4 4 4 4 3 3 3 3 3 3 3 2 2 3 3 2 3 3
2 3 3 2 2 2 2 2 2 3 3 3 3 3 2 2 2 3 4 4 4 5 5 5 4 4 4 4 3 3 3 3 3 3 3 3 3 2 3 3 3 2 3
2 2 3 2 2 2 2 2 2 2 2 3 3 3 5 4 4 4 4 4 4 4 4 4 3 3 3 3 3 4 4 3 3 3 3 3 3 3 3 3 3 3 2
2 2 2 2 2 2 2 2 2 2 2 2 2 2 4 3 2 3 3 3 3 3 3 3 3 3 3 3 3 3 3 3 3 3 3 3 3 3 2 2 2 2 2
2 2 2 2 2 3 3 2 2 2 3 3 2 1 2 2 2 2 3 3 2 2 2 3 3 3 2 2 2 3 4 4 4 4 3 3 3 3 2 3 3 3 3
2 2 2 3 3 3 3 3 2 3 2 2 2 2 2 2 2 2 2 2 2 2 2 2 2 3 3 2 1 2 2 3 3 3 4 3 3 3 2 2 3 3 3
2 2 2 2 2 3 3 3 2 3 2 2 2 1 2 2 2 2 2 2 2 2 2 2 2 3 3 3 3 2 3 3 3 2 2 2 3 3 2 3 2 3 3
2 2 2 2 2 2 2 2 2 2 2 1 1 2 2 2 2 2 2 1 1 2 2 2 2 2 2 2 2 2 2 2 2 2 1 2 2 2 2 2 3 2 3
Wind_Direction
186 193 194 199 197 190 190 193 193 192 187 186 186 179 181 185 182 178 189 188 189 205 199 187 198 183 175 171 164 163 168 162 196 257 251 248 218 229 234 234 238 231 233
194 189 195 194 187 189 196 195 186 188 190 186 180 178 187 188 184 185 196 197 194 203 208 195 203 190 185 183 172 181 186 180 175 224 263 263 243 229 220 232 250 239 238
185 175 185 191 186 196 199 192 186 182 182 181 175 180 191 190 189 193 192 196 202 208 207 202 203 187 197 194 186 189 200 188 166 186 241 254 264 252 244 268 269 272 257
182 180 192 205 201 200 195 188 186 179 179 183 185 186 190 191 192 195 193 198 206 211 208 205 201 195 200 198 197 201 195 178 173 185 225 250 258 267 158 240 288 284 277
191 199 214 215 207 197 192 189 181 181 186 181 179 187 189 190 199 196 196 198 200 209 217 214 208 202 202 202 203 200 188 184 184 192 217 239 249 233 225 217 237 283 285
214 219 222 214 208 204 202 192 181 182 182 177 189 194 195 206 204 196 193 200 201 203 214 224 222 211 215 217 216 205 191 187 193 196 214 224 237 226 217 209 206 229 278
213 227 216 202 209 211 204 188 187 190 186 185 201 201 206 211 198 195 199 193 199 205 207 211 224 219 208 210 221 223 217 211 198 192 206 222 219 216 198 215 218 213 232
232 226 215 201 210 215 202 195 196 192 191 194 203 206 202 209 196 198 202 199 201 210 207 204 209 224 219 202 203 216 227 226 215 204 208 223 221 213 199 200 209 231 265
258 236 236 215 211 209 209 214 207 193 195 199 203 200 199 216 204 199 188 187 208 226 226 217 207 217 224 204 197 214 239 257 244 227 222 228 229 224 202 166 178 189 269
256 245 244 231 217 217 217 218 209 195 200 199 204 205 203 213 208 196 184 185 205 232 244 235 223 223 224 208 202 208 227 244 240 243 245 256 246 241 222 200 189 192 217
252 250 244 233 227 220 214 211 207 197 196 201 206 214 213 215 207 198 188 184 199 214 230 239 240 232 227 224 216 215 226 225 214 219 235 253 257 247 232 216 202 191 200
244 247 248 242 241 239 213 216 209 193 192 198 202 219 225 220 208 207 202 204 200 201 225 234 237 229 229 229 225 231 229 212 202 214 236 249 250 249 242 226 217 217 216
306 273 271 264 256 234 205 206 208 198 195 198 199 216 231 226 217 211 206 210 213 213 232 241 241 236 235 236 236 230 217 203 203 219 234 242 240 243 243 239 231 226 243
296 300 284 283 293 287 226 202 201 204 205 202 205 218 226 222 216 210 212 213 215 223 242 248 239 229 234 239 241 234 219 213 209 222 236 246 254 250 240 223 225 219 242
293 296 313 310 292 301 291 250 228 225 212 203 213 211 207 222 225 204 192 198 197 201 187 178 184 208 229 235 242 244 230 220 229 239 241 248 252 250 250 226 214 213 220
299 314 312 299 290 289 297 315 304 264 251 232 219 206 218 220 213 206 204 202 198 177 161 194 216 218 220 223 222 228 225 224 232 232 233 237 240 246 256 244 211 213 231
243 270 284 287 283 277 277 269 303 314 298 253 233 221 218 215 211 208 206 201 191 168 180 209 215 220 224 222 219 215 220 223 219 218 226 233 231 231 240 253 242 234 240
252 260 261 259 264 262 259 257 249 248 274 292 268 233 221 211 209 205 186 160 178 192 209 216 220 221 220 218 216 214 215 212 210 219 226 233 229 224 232 242 245 242 244
258 262 265 263 262 258 259 261 259 252 245 256 276 268 222 194 191 194 175 183 199 211 218 221 220 218 219 216 216 213 208 206 208 210 221 229 226 218 230 237 240 251 247
270 277 281 279 275 268 266 265 262 254 248 244 242 233 189 159 176 194 205 213 212 217 217 217 216 210 211 209 204 201 201 203 207 214 223 230 229 220 230 239 242 247 248
276 282 290 297 283 276 275 275 272 262 252 248 247 233 202 194 196 199 205 212 214 217 215 210 208 208 211 206 200 200 199 203 206 216 226 230 229 228 235 239 242 241 242
262 265 274 274 275 281 282 268 264 265 257 256 262 249 204 198 189 190 203 214 218 216 209 201 208 211 204 200 196 195 198 201 208 214 224 229 230 231 231 234 245 251 245
255 254 264 270 264 269 277 272 262 262 257 249 241 224 196 203 204 204 207 210 208 213 208 193 200 210 209 202 191 189 197 211 217 209 212 223 227 230 228 234 240 244 248
272 258 253 260 258 257 259 261 258 264 262 244 226 206 194 195 204 208 202 200 202 209 205 196 195 196 193 187 188 198 206 215 215 213 209 214 223 229 230 235 241 241 243
280 273 266 260 258 254 252 252 257 260 258 241 217 211 202 190 198 201 197 189 195 203 204 199 196 193 191 192 191 205 211 209 215 216 211 211 224 233 235 243 247 247 244
281 285 281 274 268 262 253 249 256 258 256 247 212 199 192 184 184 188 189 185 202 205 200 196 195 188 192 200 212 217 218 224 229 231 208 203 218 239 242 247 250 250 246